Location: Altavilla Irpina
(41.0000°N, 14.7833°E)
Time: 21:13:16
(UTC+00:00)

Cosmos 1833 Rocket - Pass Details

Date: 19 May 2025
Orbit: 831 x 839 km, 71.0° (Epoch: 15 June)

Event Time Altitude Azimuth Distance (km) Brightness Sun altitude
Rises 20:20:18 0° 215° (SW) 3,375 5.7 -19.0°
Reaches altitude 10° 20:22:47 10° 219° (SW) 2,445 5.0 -19.3°
Maximum altitude 20:28:17 56° 297° (WNW) 996 3.3 -19.9°
Drops below altitude 10° 20:33:50 10° 16° (NNE) 2,461 5.6 -20.5°
Sets 20:36:20 0° 20° (NNE) 3,399 6.3 -20.8°
